Skip Page Navigation
NASA JPL Caltech
NASA Logo - Jet Propulsion Laboratory + View the NASA Portal
+ Near-Earth Object (NEO) Program
Search JPL
JPL Home Earth Solar System Stars & Galaxies Technology
JPL Solar System Dynamics
BODIES ORBITS EPHEMERIDES TOOLS PHYSICAL DATA DISCOVERY FAQ SITE MAP
JPL Small-Body Database Browser
Search: [ help ]  
7159 Bobjoseph (1981 EN17)
Classification: Main-belt Asteroid          SPK-ID: 2007159
Ephemeris | Orbit Diagram | Orbital Elements | Physical Parameters | Discovery Circumstances ]

[ show orbit diagram ]
Orbital Elements at Epoch 2456400.5 (2013-Apr-18.0) TDB
Reference: MPO256917 (heliocentric ecliptic J2000)
 Element Value Uncertainty (1-sigma)   Units 
e 0.1726984 n/a  
a 2.2935868 n/a AU
q 1.8974880 n/a AU
i 4.57490 n/a deg
node 211.15860 n/a deg
peri 157.69136 n/a deg
M 253.84390 n/a deg
tp 2456774.6223432
(2014-Apr-27.12234320)
n/a JED
period 1268.7357915
3.47
n/a
n/a
d
yr
n 0.28374702 n/a deg/d
Q 2.6896856 n/a AU
  Orbit Determination Parameters
   # obs. used (total)      966  
   first obs. used      1951-??-??  
   last obs. used      2013-03-19  
   # oppositions      18  
   planetary ephem.      DE403  
   condition code      0  
   fit RMS      0.55  
   data source      MPC:mpn  
   producer      MPCLINUX  

Additional Information
 T_jup = 3.572 

Ephemeris | Orbit Diagram | Orbital Elements | Physical Parameters | Discovery Circumstances ]

Physical Parameter Table
Parameter Symbol Value Units Sigma Reference Notes
absolute magnitude H 13.8 mag n/a PDS3 (MPC 28116)  

7159 Bobjoseph           Discovered 1981 Mar. 1 by S. J. Bus at Siding Spring in the course of the U.K. Schmidt-Caltech Asteroid Survey.
Robert D. Joseph (b. 1939), a professor of astronomy at the University of Hawaii, is an expert in infrared studies of extragalactic star formation. From 1989 to 2000, he served as division chief for the NASA Infrared Telescope Facility on Mauna Kea.
NOTE: some special characters may not display properly (any characters within {} are an attempt to place the proper accent above a character)
Reference: 20050721/MPCPages.arcLast Updated: 2005-07-21
Ephemeris | Orbit Diagram | Orbital Elements | Physical Parameters | Discovery Circumstances ]
ABOUT SSD CREDITS/AWARDS PRIVACY/COPYRIGHT GLOSSARY LINKS
FirstGov 2013-May-25 21:26 UT
(server date/time)  
NASA Home Page
Site Manager:   Donald K. Yeomans
Webmaster  Alan B. Chamberlin